When you browse on this site, cookies collect data to enhance your experience and personalize the content and advertising you see.
Visit our Privacy Policy to learn more. By continuing to use the site, you agree to this use of cookies and data.
  • In Hungary
  • List of Countries
  • For 7 days
  • Water Temperature
  • Satellite Maps
  • Weather Map
  • News
  • Weather Widgets
  • user-avatar
    Login

    Hourly Weather Engure

    Today, 17 June, Monday

    Time Temperature Precipitation Wind Pressure Humidity
    00:00 +19°C° 0 mm 1 mps 760 mmHg 71%
    01:00 +19°C° 0 mm 1 mps 760 mmHg 73%
    02:00 +18°C° 0 mm 1 mps 760 mmHg 75%
    03:00 +18°C° 0.1 mm 1 mps 760 mmHg 75%
    04:00 +18°C° 0.1 mm 1 mps 759 mmHg 76%
    05:00 +16°C° 0.1 mm 1 mps 759 mmHg 76%
    06:00 +16°C° 0.1 mm 2 mps 760 mmHg 79%
    07:00 +16°C° 0.1 mm 3 mps 760 mmHg 82%
    08:00 +16°C° 0.1 mm 3 mps 760 mmHg 84%
    09:00 +17°C° 0 mm 3 mps 760 mmHg 83%
    10:00 +17°C° 0 mm 3 mps 761 mmHg 82%
    11:00 +18°C° 0 mm 3 mps 761 mmHg 81%
    12:00 +20°C° 0 mm 3 mps 761 mmHg 74%
    13:00 +21°C° 0 mm 3 mps 761 mmHg 67%
    14:00 +22°C° 0 mm 4 mps 761 mmHg 59%
    15:00 +22°C° 0 mm 4 mps 762 mmHg 58%
    16:00 +21°C° 0 mm 5 mps 762 mmHg 57%
    17:00 +21°C° 0 mm 5 mps 762 mmHg 55%
    18:00 +20°C° 0 mm 4 mps 762 mmHg 59%
    19:00 +19°C° 0 mm 4 mps 762 mmHg 63%
    20:00 +18°C° 0 mm 3 mps 762 mmHg 67%
    21:00 +16°C° 0 mm 3 mps 762 mmHg 74%
    22:00 +14°C° 0 mm 4 mps 763 mmHg 80%
    23:00 +13°C° 0 mm 4 mps 763 mmHg 86%

    Tomorrow, 18 June, Tuesday

    Time Temperature Precipitation Wind Pressure Humidity
    00:00 +13°C° 0 mm 4 mps 763 mmHg 87%
    01:00 +13°C° 0 mm 4 mps 763 mmHg 88%
    02:00 +13°C° 0 mm 4 mps 763 mmHg 90%
    03:00 +13°C° 0 mm 4 mps 763 mmHg 89%
    04:00 +13°C° 0 mm 4 mps 763 mmHg 89%
    05:00 +13°C° 0 mm 4 mps 763 mmHg 89%
    06:00 +16°C° 0 mm 3 mps 763 mmHg 82%
    07:00 +18°C° 0 mm 3 mps 763 mmHg 75%
    08:00 +20°C° 0 mm 2 mps 763 mmHg 68%
    09:00 +21°C° 0 mm 2 mps 763 mmHg 63%
    10:00 +23°C° 0 mm 2 mps 764 mmHg 59%
    11:00 +24°C° 0 mm 2 mps 764 mmHg 55%
    12:00 +24°C° 0 mm 2 mps 764 mmHg 56%
    13:00 +24°C° 0 mm 2 mps 764 mmHg 56%
    14:00 +24°C° 0 mm 3 mps 764 mmHg 56%
    15:00 +22°C° 0 mm 3 mps 763 mmHg 59%
    16:00 +23°C° 0 mm 2 mps 763 mmHg 62%
    17:00 +21°C° 0 mm 2 mps 763 mmHg 65%
    18:00 +20°C° 0 mm 2 mps 763 mmHg 69%
    19:00 +19°C° 0 mm 2 mps 763 mmHg 73%
    20:00 +19°C° 0 mm 1 mps 763 mmHg 77%
    21:00 +18°C° 0 mm 1 mps 763 mmHg 78%
    22:00 +16°C° 0 mm 1 mps 763 mmHg 80%
    23:00 +15°C° 0 mm 1 mps 763 mmHg 81%

    Day after tomorrow, 19 June, Wednesday

    Time Temperature Precipitation Wind Pressure Humidity
    00:00 +15°C° 0 mm 2 mps 763 mmHg 81%
    01:00 +15°C° 0 mm 2 mps 763 mmHg 82%
    02:00 +15°C° 0 mm 2 mps 763 mmHg 83%
    03:00 +15°C° 0 mm 2 mps 763 mmHg 84%
    04:00 +15°C° 0 mm 2 mps 763 mmHg 86%
    05:00 +15°C° 0 mm 2 mps 763 mmHg 87%
    06:00 +17°C° 0 mm 2 mps 762 mmHg 82%
    07:00 +19°C° 0 mm 2 mps 762 mmHg 76%
    08:00 +21°C° 0 mm 2 mps 762 mmHg 70%
    09:00 +23°C° 0 mm 2 mps 762 mmHg 65%
    10:00 +24°C° 0 mm 2 mps 762 mmHg 61%
    11:00 +25°C° 0 mm 2 mps 762 mmHg 56%
    12:00 +26°C° 0 mm 2 mps 762 mmHg 55%
    13:00 +26°C° 0 mm 3 mps 761 mmHg 54%
    14:00 +27°C° 0 mm 3 mps 761 mmHg 53%
    15:00 +26°C° 0 mm 3 mps 761 mmHg 55%
    16:00 +26°C° 0 mm 3 mps 760 mmHg 56%
    17:00 +26°C° 0 mm 4 mps 760 mmHg 57%
    18:00 +25°C° 0 mm 3 mps 760 mmHg 64%
    19:00 +24°C° 0 mm 3 mps 760 mmHg 70%
    20:00 +22°C° 0 mm 3 mps 759 mmHg 77%
    21:00 +21°C° 0 mm 3 mps 759 mmHg 80%
    22:00 +20°C° 0 mm 3 mps 759 mmHg 83%
    23:00 +18°C° 0 mm 3 mps 759 mmHg 86%

    20 June, Thursday

    Time Temperature Precipitation Wind Pressure Humidity
    00:00 +18°C° 0 mm 3 mps 759 mmHg 85%
    01:00 +18°C° 0 mm 3 mps 759 mmHg 85%
    02:00 +18°C° 0 mm 3 mps 758 mmHg 84%
    03:00 +19°C° 0 mm 3 mps 758 mmHg 80%
    04:00 +19°C° 0 mm 3 mps 758 mmHg 77%
    05:00 +19°C° 0 mm 4 mps 758 mmHg 73%
    06:00 +19°C° 1 mm 4 mps 757 mmHg 81%
    07:00 +18°C° 1 mm 4 mps 757 mmHg 88%
    08:00 +18°C° 1 mm 4 mps 757 mmHg 96%
    09:00 +19°C° 0.6 mm 4 mps 757 mmHg 93%
    10:00 +20°C° 0.6 mm 4 mps 757 mmHg 90%
    11:00 +21°C° 0.6 mm 5 mps 757 mmHg 88%
    12:00 +22°C° 0.1 mm 4 mps 757 mmHg 85%
    13:00 +22°C° 0.1 mm 4 mps 757 mmHg 82%
    14:00 +24°C° 0.1 mm 3 mps 757 mmHg 79%
    15:00 +25°C° 0 mm 3 mps 757 mmHg 76%
    16:00 +25°C° 0 mm 2 mps 757 mmHg 73%
    17:00 +26°C° 0 mm 2 mps 757 mmHg 70%
    18:00 +25°C° 0 mm 2 mps 757 mmHg 74%
    19:00 +24°C° 0 mm 2 mps 757 mmHg 78%
    20:00 +23°C° 0 mm 2 mps 757 mmHg 82%
    21:00 +21°C° 0 mm 2 mps 757 mmHg 86%
    22:00 +20°C° 0 mm 3 mps 758 mmHg 91%
    23:00 +18°C° 0 mm 3 mps 758 mmHg 95%

    21 June, Friday

    Time Temperature Precipitation Wind Pressure Humidity
    00:00 +18°C° 0 mm 3 mps 758 mmHg 93%
    01:00 +17°C° 0 mm 3 mps 758 mmHg 91%
    02:00 +15°C° 0 mm 4 mps 759 mmHg 88%
    03:00 +16°C° 0 mm 3 mps 759 mmHg 89%
    04:00 +16°C° 0 mm 3 mps 759 mmHg 89%
    05:00 +14°C° 0 mm 3 mps 759 mmHg 90%
    06:00 +17°C° 0 mm 3 mps 760 mmHg 84%
    07:00 +18°C° 0 mm 2 mps 760 mmHg 79%
    08:00 +21°C° 0 mm 1 mps 760 mmHg 73%
    09:00 +21°C° 0 mm 1 mps 761 mmHg 70%
    10:00 +22°C° 0 mm 1 mps 761 mmHg 68%
    11:00 +23°C° 0 mm 1 mps 761 mmHg 65%
    12:00 +22°C° 0 mm 1 mps 761 mmHg 65%
    13:00 +21°C° 0 mm 2 mps 761 mmHg 65%
    14:00 +21°C° 0 mm 2 mps 761 mmHg 65%
    15:00 +21°C° 0 mm 2 mps 761 mmHg 66%
    16:00 +20°C° 0 mm 2 mps 761 mmHg 68%
    17:00 +19°C° 0 mm 2 mps 761 mmHg 70%
    18:00 +19°C° 0 mm 2 mps 760 mmHg 72%
    19:00 +18°C° 0 mm 2 mps 760 mmHg 73%
    20:00 +19°C° 0 mm 1 mps 760 mmHg 75%
    21:00 +18°C° 0 mm 1 mps 760 mmHg 74%
    22:00 +16°C° 0 mm 1 mps 761 mmHg 74%
    23:00 +15°C° 0 mm 1 mps 761 mmHg 73%

    22 June, Saturday

    Time Temperature Precipitation Wind Pressure Humidity
    00:00 +15°C° 0 mm 1 mps 761 mmHg 72%
    01:00 +15°C° 0 mm 1 mps 761 mmHg 72%
    02:00 +15°C° 0 mm 1 mps 761 mmHg 71%
    03:00 +15°C° 0 mm 1 mps 761 mmHg 71%
    04:00 +16°C° 0 mm 1 mps 761 mmHg 71%
    05:00 +16°C° 0 mm 2 mps 761 mmHg 71%
    06:00 +17°C° 0 mm 2 mps 761 mmHg 67%
    07:00 +18°C° 0 mm 2 mps 761 mmHg 63%
    08:00 +20°C° 0 mm 2 mps 761 mmHg 58%
    09:00 +21°C° 0 mm 2 mps 760 mmHg 57%
    10:00 +23°C° 0 mm 2 mps 760 mmHg 55%
    11:00 +24°C° 0 mm 2 mps 760 mmHg 53%
    12:00 +24°C° 0 mm 2 mps 760 mmHg 53%
    13:00 +24°C° 0 mm 3 mps 760 mmHg 53%
    14:00 +24°C° 0 mm 3 mps 760 mmHg 53%
    15:00 +24°C° 0 mm 3 mps 760 mmHg 55%
    16:00 +22°C° 0 mm 4 mps 759 mmHg 58%
    17:00 +22°C° 0 mm 4 mps 759 mmHg 60%
    18:00 +21°C° 0 mm 4 mps 759 mmHg 64%
    19:00 +20°C° 0 mm 4 mps 759 mmHg 68%
    20:00 +18°C° 0 mm 4 mps 759 mmHg 72%
    21:00 +18°C° 0.2 mm 4 mps 759 mmHg 76%
    22:00 +17°C° 0.2 mm 4 mps 759 mmHg 81%
    23:00 +17°C° 0.2 mm 4 mps 759 mmHg 86%
    Show more